Location: LDNL
(36.4545°S, 141.6685°E)
Time: 06:05:25
(UTC+10:00)

Vanguard 2 - Visible Passes

Search period start: 10 August 2022 00:00
Search period end: 20 August 2022 00:00
Orbit: 552 x 2934 km, 32.9° (Epoch: 09 August)

Date Brightness Start Highest point End Pass type
(mag) Time Alt. Az. Time Alt. Az. Time Alt. Az.
10 Aug 9.7 18:43:14 10° WNW 18:58:24 65° NNE 19:06:10 18° E visible
10 Aug 9.0 20:56:32 10° W 21:07:32 66° NW 21:07:32 66° NW visible
11 Aug 9.6 19:00:36 10° WNW 19:15:47 71° N 19:22:33 23° E visible
11 Aug 9.3 21:14:06 10° W 21:23:55 55° WNW 21:23:55 55° WNW visible
12 Aug 9.5 19:18:05 10° WNW 19:33:10 74° N 19:38:55 30° E visible
12 Aug 9.7 21:31:41 10° W 21:40:17 45° WNW 21:40:17 45° WNW visible
13 Aug 9.4 19:35:38 10° W 19:50:33 75° N 19:55:19 37° ENE visible
13 Aug 10.0 21:49:17 10° W 21:56:40 37° WNW 21:56:40 37° WNW visible
14 Aug 9.2 19:53:14 10° W 20:07:55 73° N 20:11:42 44° ENE visible
14 Aug 10.3 22:06:57 10° W 22:13:04 29° WNW 22:13:04 29° WNW visible
15 Aug 9.2 20:10:51 10° W 20:25:13 69° NNW 20:28:06 50° NE visible
15 Aug 10.6 22:24:45 10° W 22:29:28 23° WNW 22:29:28 23° WNW visible
16 Aug 10.0 18:14:34 10° W 18:31:40 77° N 18:42:52 10° E visible
16 Aug 9.2 20:28:28 10° W 20:42:27 62° NNW 20:44:31 53° NNE visible
16 Aug 10.9 22:42:48 10° W 22:45:54 17° WNW 22:45:54 17° WNW visible
17 Aug 10.0 18:32:08 10° W 18:49:06 77° N 18:59:36 12° E visible
17 Aug 9.4 20:46:06 10° W 20:59:34 54° NNW 21:00:58 51° N visible
17 Aug 11.2 23:01:21 10° W 23:02:21 12° W 23:02:21 12° W visible
18 Aug 9.9 18:49:43 10° W 19:06:31 74° N 19:16:04 16° ENE visible
18 Aug 9.7 21:03:48 10° W 21:16:32 45° NNW 21:17:27 44° NNW visible
19 Aug 9.9 19:07:20 10° W 19:23:52 70° NNW 19:32:35 19° ENE visible
19 Aug 10.0 21:21:39 10° W 21:33:22 36° NW 21:33:59 36° NNW visible
